RH
100 100 100 75 74 97 97 95 94 90 68 76 81 61 67 68 81 86 88 62 48 48 54 61 65 71 68 67 53 53 60 54 52 53 46 46 52 54 46 45 48 44 44
100 100 100 94 85 100 100 100 100 98 99 100 97 100 100 100 99 96 84 68 71 69 64 61 66 74 73 60 57 54 50 45 50 52 48 51 45 45 52 44 50 54 47
93 97 94 85 97 96 82 74 80 76 82 100 66 81 98 99 100 75 78 99 92 99 89 89 74 70 54 60 58 52 48 47 55 54 58 53 52 44 49 52 54 58 55
97 79 84 85 100 100 98 86 98 100 100 100 94 99 100 100 100 100 100 95 100 100 89 73 71 62 57 61 72 51 53 54 42 45 57 54 63 58 54 57 60 86 74
93 75 75 97 100 100 100 99 100 100 100 100 100 100 100 100 92 71 86 90 100 77 82 76 76 70 62 64 73 52 59 52 54 55 62 65 62 68 60 69 71 88 75
90 60 69 100 100 96 86 96 100 100 100 100 98 100 100 70 75 84 93 91 96 55 58 73 78 69 60 52 59 49 43 52 64 86 92 80 69 71 66 88 76 92 86
84 74 58 56 71 88 100 100 100 100 100 100 100 94 86 70 90 95 77 61 48 51 64 75 74 64 57 56 50 41 48 60 76 87 83 84 87 90 100 85 100 77 54
56 57 69 82 86 98 92 100 100 96 83 83 96 71 78 70 70 61 65 53 44 55 66 64 70 58 51 56 53 42 52 66 82 100 84 72 84 100 100 100 98 100 73
98 100 100 93 93 100 95 79 71 70 71 73 72 64 89 70 81 62 45 40 42 48 55 52 53 43 44 42 46 60 65 65 80 74 81 78 80 68 96 85 70 87 100
100 100 100 100 100 87 89 69 65 73 77 76 67 58 62 53 42 35 30 38 48 40 41 46 45 49 53 57 62 74 88 88 78 86 86 83 80 84 71 70 80 82 92
100 100 100 100 92 65 67 62 63 68 63 52 58 71 36 32 30 30 32 43 43 50 49 66 70 72 87 95 99 92 89 86 85 80 74 67 84 90 92 84 74 79 92
100 82 86 100 100 100 100 100 100 90 73 58 42 55 50 42 43 56 63 69 94 98 94 89 84 97 93 99 100 94 90 72 79 93 100 98 78 83 100 94 81 82 91
86 73 95 100 100 100 100 100 100 90 66 78 67 65 45 56 51 60 71 100 100 100 85 88 84 81 93 100 99 100 100 96 97 88 76 67 80 71 76 90 80 75 74
100 100 100 100 100 100 100 100 100 100 83 67 49 59 82 70 92 92 100 100 90 96 99 78 98 100 100 100 100 100 100 100 73 64 64 75 71 65 68 68 68 53 56
100 100 100 100 100 100 100 100 96 93 94 71 85 83 85 79 100 100 100 79 100 97 100 100 92 100 100 97 99 92 71 46 46 44 41 42 49 50 58 54 46 44 45
100 100 100 100 100 100 100 100 100 100 97 94 100 100 100 100 100 100 100 95 100 84 100 100 99 92 92 73 77 51 38 38 34 37 40 40 44 44 46 44 41 38 44
100 100 100 100 100 100 100 100 100 100 100 100 100 100 100 100 100 100 100 100 100 100 100 98 100 100 75 51 44 34 36 34 30 33 30 32 36 39 39 40 40 41 42
100 100 100 100 100 100 100 100 100 100 100 100 93 79 100 100 100 100 98 84 100 95 89 88 83 51 46 39 28 27 29 28 27 29 29 29 31 34 38 40 40 44 48
100 97 95 97 99 100 100 100 98 100 100 100 88 93 97 100 99 100 100 94 89 91 80 73 54 40 39 33 29 30 29 25 25 22 20 21 23 31 38 40 47 48 49
100 100 100 100 100 88 100 99 100 100 100 100 100 100 100 100 100 99 99 97 98 81 74 67 40 42 34 33 34 29 26 20 17 16 17 17 19 23 27 34 37 42 50
100 100 100 100 100 100 100 100 100 88 97 100 100 100 100 100 100 100 100 100 83 87 70 58 50 38 40 31 30 26 18 15 14 13 14 16 16 19 21 22 25 34 44
100 100 100 100 100 100 100 100 100 100 96 99 91 100 100 100 100 100 100 100 70 81 64 56 46 42 33 29 25 17 13 11 11 11 13 15 16 17 20 22 24 24 32
100 100 100 100 100 100 100 100 100 100 100 100 100 100 100 100 100 98 98 85 77 66 58 47 47 35 31 26 18 13 11 11 12 13 15 15 15 16 18 20 23 26 34
100 100 100 100 100 100 100 100 100 100 100 100 100 100 100 100 100 100 87 81 73 56 51 42 36 33 28 18 14 12 12 14 16 18 19 20 18 19 20 22 25 30 34
100 100 100 100 100 100 100 100 100 100 98 95 100 100 100 100 100 83 75 63 59 44 36 33 32 28 19 16 14 16 19 20 19 20 21 23 23 25 25 28 31 36 38
100 100 100 100 100 100 100 100 100 100 100 100 100 100 100 96 83 67 57 53 41 30 31 34 28 22 17 17 18 23 23 23 23 20 20 21 24 28 31 35 39 41 47
Wind_Speed
46 44 40 41 38 36 35 37 38 39 40 39 40 41 43 44 44 47 48 51 53 53 55 57 55 58 58 57 57 58 64 61 53 48 50 55 61 61 62 64 65 66 70
51 46 43 45 44 42 39 41 41 42 43 44 44 44 44 46 49 47 52 58 58 59 60 59 61 60 58 58 58 58 54 51 47 49 57 63 65 61 62 64 67 71 71
54 51 47 49 47 50 50 51 49 49 49 48 51 54 50 49 52 55 57 56 62 59 63 63 65 61 64 60 58 58 49 47 52 57 59 63 65 64 64 68 70 74 74
56 54 52 52 48 50 51 52 51 51 52 55 55 52 52 54 53 54 56 61 58 60 69 64 65 61 62 60 56 52 46 55 60 60 63 64 65 68 68 71 73 77 77
58 53 51 52 46 45 46 50 52 54 58 60 58 60 59 60 62 67 65 66 63 67 69 66 61 65 60 59 56 46 54 64 66 66 68 68 68 69 71 74 75 78 79
56 50 48 56 54 52 61 64 64 62 58 59 62 63 66 68 66 66 66 66 67 72 68 65 64 57 57 52 49 50 63 68 69 67 71 71 70 70 74 76 78 76 78
60 61 61 59 61 64 64 60 59 56 60 60 61 66 65 68 67 70 74 71 72 68 67 65 59 53 55 57 57 64 68 71 67 70 71 72 73 74 76 77 80 80 71
55 60 64 65 68 71 73 71 64 64 69 66 63 69 69 74 75 71 69 63 64 61 59 58 54 63 67 67 72 71 74 73 69 73 74 73 71 72 76 78 76 78 78
59 63 67 70 73 73 75 75 74 73 72 68 73 72 74 71 64 61 61 62 59 58 59 63 62 67 71 72 75 76 78 78 75 72 73 77 78 76 75 79 80 75 75
58 63 64 67 68 67 65 65 65 67 68 69 68 65 62 65 68 68 69 65 65 63 65 70 71 70 73 75 78 79 81 82 78 81 82 81 83 82 84 84 82 81 76
63 64 64 64 64 66 66 64 63 64 67 65 64 65 70 69 70 72 70 68 68 69 73 72 72 76 78 82 84 86 89 94 94 94 95 93 93 89 90 87 87 81 82
55 57 62 68 65 62 64 66 66 63 63 66 69 69 69 70 69 71 70 69 68 71 75 74 77 78 82 89 87 90 96 103 104 104 103 103 104 99 94 93 92 85 82
61 63 61 61 62 61 58 58 63 67 68 64 68 68 73 74 75 71 72 70 75 75 79 80 81 84 90 99 94 90 99 105 106 107 107 109 105 101 99 97 94 91 87
58 55 60 63 58 51 62 65 70 61 67 66 70 69 69 71 76 76 75 80 84 78 80 85 83 85 95 98 97 96 104 117 116 115 114 112 109 104 97 95 93 88 81
57 62 62 55 56 62 66 61 63 60 61 64 63 70 76 77 77 80 86 87 82 80 86 92 92 94 100 103 107 116 121 122 118 110 103 99 97 95 95 93 90 82 75
69 63 69 67 68 70 66 68 71 69 69 72 70 72 76 80 84 85 88 90 91 92 91 99 100 100 112 113 120 122 127 113 103 97 93 94 92 88 88 84 83 78 73
77 63 70 71 71 74 73 74 74 73 74 73 74 79 84 89 93 95 97 102 100 99 101 103 109 113 117 123 133 127 115 105 99 97 91 89 85 85 82 78 76 72 69
80 74 71 70 71 74 77 78 80 84 87 89 94 95 96 101 105 106 110 109 112 114 111 113 115 122 131 133 120 113 102 100 94 90 89 86 83 80 79 77 73 69 65
76 75 80 83 85 82 82 83 87 91 91 97 99 105 108 112 111 113 117 118 119 120 121 125 125 139 140 128 117 107 106 96 91 87 84 81 78 76 75 74 72 70 66
91 87 86 90 93 94 94 94 94 97 104 106 106 108 112 112 116 122 125 130 131 130 132 136 141 145 135 125 115 108 98 92 87 82 79 76 73 71 69 70 68 66 65
107 106 102 98 99 99 102 102 103 105 107 112 113 114 114 116 120 126 130 135 135 139 141 145 149 140 128 118 111 101 94 88 83 80 76 73 71 68 66 64 64 59 61
108 105 104 104 101 101 105 107 112 118 119 118 116 117 120 124 130 133 138 141 143 147 149 149 146 132 123 112 103 95 90 86 82 78 73 68 67 66 63 63 63 58 57
118 118 116 118 117 117 117 118 118 116 119 120 122 126 130 132 138 139 144 148 150 151 150 145 136 121 113 101 96 91 89 83 78 73 68 66 63 62 61 60 60 58 56
124 125 127 127 126 126 126 125 125 126 128 128 130 134 137 140 146 148 149 146 150 152 139 134 122 111 100 96 91 89 84 78 74 68 64 62 59 57 58 57 56 55 53
135 128 129 127 128 128 130 130 133 133 133 133 139 141 144 148 147 150 148 148 146 135 121 111 104 99 94 91 88 84 79 75 69 62 57 53 50 50 52 51 51 52 51
130 132 132 135 137 137 137 135 135 140 145 147 147 149 152 153 152 149 148 140 127 117 109 99 96 94 91 88 84 79 74 67 63 55 48 44 43 44 44 46 46 46 46
Wind_Direction
258 261 266 272 271 270 277 279 280 283 286 288 289 294 296 300 303 305 307 308 310 310 309 311 312 313 312 312 314 317 315 315 316 318 321 324 328 327 331 332 338 340 338
259 262 265 271 269 275 271 270 272 276 281 284 287 291 293 293 295 302 303 306 308 308 308 310 311 310 310 314 315 319 318 323 322 321 324 322 326 327 330 332 336 337 338
257 260 263 269 269 269 267 270 273 280 282 279 284 287 291 292 294 300 303 303 307 305 307 307 310 310 313 315 318 321 321 324 325 320 319 325 329 326 328 331 334 334 337
256 259 262 267 261 264 269 274 278 281 282 280 283 284 287 289 293 292 295 304 298 295 303 308 311 312 313 316 317 316 318 318 320 323 323 325 327 327 325 327 330 334 335
257 259 263 258 259 269 273 278 280 281 286 280 279 282 286 286 289 295 301 301 293 302 302 306 307 311 316 317 313 310 314 320 322 324 326 324 323 323 324 325 329 331 331
255 262 264 261 261 265 280 286 284 289 286 284 282 285 285 287 291 292 295 295 296 299 301 302 307 309 313 310 307 308 316 320 322 324 323 324 321 320 321 322 326 327 330
263 262 268 270 268 272 284 285 284 285 284 281 280 279 282 285 288 290 293 295 300 300 300 301 302 311 315 312 307 310 316 318 320 318 317 317 321 323 320 321 319 323 326
265 266 270 270 270 275 278 277 281 278 278 278 277 280 281 284 286 290 292 299 300 302 302 300 299 303 308 310 310 313 314 317 317 314 315 317 318 320 315 313 316 319 322
277 274 270 270 271 273 274 276 279 281 279 278 276 278 278 282 285 289 294 296 297 297 298 304 304 306 306 309 312 314 315 314 314 311 314 317 317 318 314 314 317 318 319
273 269 268 269 269 273 272 275 279 276 276 273 276 278 279 284 288 290 295 294 296 294 297 303 305 308 312 314 316 315 315 314 315 314 315 316 317 314 315 315 315 315 315
268 267 267 269 272 274 276 277 274 273 273 276 276 274 282 290 291 295 296 298 298 299 302 302 307 311 312 313 313 316 316 314 314 312 313 313 313 313 311 312 313 312 314
262 265 269 272 273 274 275 273 269 268 270 275 279 284 289 292 294 293 296 296 297 300 301 299 302 307 309 311 309 311 313 314 311 310 311 309 309 310 307 308 309 310 308
259 262 265 266 269 270 266 266 264 269 272 274 276 280 289 289 292 290 292 292 293 293 296 298 298 301 304 307 307 304 309 310 308 304 303 304 305 304 305 305 305 306 304
252 254 257 260 262 253 250 250 263 265 268 270 273 281 281 284 283 286 284 287 294 293 294 294 296 296 302 301 303 302 302 304 304 302 301 300 300 299 301 300 301 301 301
248 248 252 242 246 249 256 262 262 261 262 271 273 276 279 281 284 280 282 287 288 286 286 287 288 291 294 297 300 303 302 303 301 300 298 297 297 299 300 299 298 298 298
246 246 234 237 239 244 252 256 258 263 269 271 271 272 278 279 280 279 278 281 281 284 281 284 288 288 297 296 298 299 302 300 299 298 297 296 296 295 293 293 294 297 296
234 229 230 232 235 242 246 252 253 260 264 265 266 271 271 274 279 276 277 279 281 281 283 286 290 293 298 299 300 302 303 302 299 297 297 295 295 294 293 291 292 294 293
223 225 229 233 240 244 246 249 253 258 261 264 269 274 274 277 280 280 281 282 284 284 286 288 291 294 298 302 303 301 302 301 300 297 296 295 293 291 290 289 290 290 291
225 231 236 238 242 246 250 252 254 258 265 268 272 274 276 279 280 283 285 286 285 288 288 291 293 298 303 303 305 304 303 300 299 298 295 293 290 288 286 287 286 286 285
234 238 238 242 244 248 252 255 259 264 267 269 272 274 277 277 280 283 285 287 288 288 292 294 297 302 303 305 304 302 300 299 298 295 292 289 287 286 285 283 282 281 282
235 239 243 248 251 253 256 259 261 265 268 272 274 274 276 277 281 284 287 287 289 292 293 296 300 302 303 302 302 301 300 300 297 293 290 287 285 284 283 281 281 280 277
241 244 246 248 250 254 257 260 263 266 270 271 273 275 278 280 282 285 287 288 290 294 295 298 300 299 300 300 300 300 299 298 295 292 290 287 284 281 280 278 278 278 275
244 247 250 252 255 257 258 262 265 268 269 271 274 275 277 281 282 285 287 289 291 294 296 296 298 298 296 298 298 298 299 297 295 293 291 286 282 279 276 275 275 275 273
243 246 249 253 257 259 262 263 264 267 269 272 275 276 279 281 283 285 287 289 292 292 292 294 294 294 295 297 298 299 298 297 296 294 291 287 283 277 274 271 269 269 268
244 247 251 253 255 258 261 263 266 267 271 273 274 276 277 283 286 285 287 287 289 289 291 292 292 294 296 298 299 300 300 299 298 297 295 289 284 276 271 267 266 265 266
249 250 253 255 258 259 261 263 265 266 268 272 273 274 278 279 284 282 284 286 286 286 289 292 292 295 297 298 299 300 299 298 298 299 297 292 283 275 270 266 264 264 263